Wind_Speed
49 51 51 47 43 42 44 47 49 48 48 50 50 51 51 51 50 47 46 46 48 50 49 49 48 45 45 45 40 35 33 33 30 28 28 25 27 28 26 25 25 26 26 26 29 31 33 33 31 30 31 32 33 34 34 33 32 31 30 28 27 28 29 28 28 28 27 26 27 28 28 28 29 30 30 30 30 29 30 31 32 33 35 36 37 38
50 53 50 44 43 45 47 47 49 50 50 51 51 52 52 52 50 47 47 47 48 51 48 48 47 43 43 44 42 38 33 31 30 29 27 23 24 24 23 23 24 25 26 27 30 31 32 31 29 28 28 29 31 32 32 32 32 31 30 29 29 29 30 30 30 30 29 29 29 30 29 30 30 30 30 30 30 30 31 32 33 34 35 36 37 38
51 53 49 44 45 47 47 47 49 50 51 51 51 52 52 51 51 50 50 48 49 50 48 48 48 43 42 43 43 39 34 32 31 29 26 21 20 21 22 24 25 26 27 28 29 30 29 29 28 28 27 28 29 30 30 30 30 30 30 31 31 31 31 32 33 33 33 33 34 34 33 32 32 31 31 32 32 32 33 34 35 36 37 38 39 39
53 53 48 46 47 47 47 48 50 51 52 51 51 53 53 51 51 53 52 51 50 51 49 49 48 46 44 44 44 40 33 32 31 29 25 20 20 21 22 25 26 26 27 27 28 27 26 27 27 27 26 27 27 27 28 28 28 29 29 30 31 32 33 33 34 35 36 37 37 36 36 36 35 34 34 34 34 34 35 37 38 39 40 40 41 40
54 53 49 47 47 48 50 51 52 53 53 53 53 54 53 52 53 54 54 53 52 51 50 50 50 48 47 47 47 42 34 30 30 29 25 22 22 22 21 23 25 26 26 26 25 24 23 24 25 25 25 25 25 26 26 27 27 27 27 28 29 30 32 33 34 35 37 38 38 38 38 38 39 38 38 37 36 37 39 40 41 42 42 42 42 42
54 52 50 49 49 50 52 54 54 53 53 54 54 54 54 54 55 55 55 54 54 52 51 51 51 48 47 48 49 47 38 33 33 31 25 23 24 24 21 20 23 25 26 24 22 22 23 24 26 26 25 26 26 27 27 27 27 27 28 29 30 31 32 33 34 35 37 37 38 39 40 40 41 41 41 40 40 41 41 42 43 44 44 44 43 43
54 52 50 51 52 53 55 55 53 53 55 56 55 54 54 55 55 55 55 54 54 53 52 52 52 51 48 47 49 50 45 40 38 33 26 23 25 25 24 21 20 22 25 25 24 24 24 25 26 27 29 30 30 30 31 31 31 32 33 34 35 36 36 37 37 37 38 38 39 40 40 41 42 41 41 42 43 44 44 44 45 45 45 45 45 45
53 51 51 51 52 55 56 54 52 53 57 57 55 54 54 54 54 54 54 54 54 53 53 53 55 55 51 48 49 51 51 48 44 38 30 26 27 28 29 27 23 24 26 28 28 28 28 28 28 29 30 31 32 34 36 37 38 39 40 41 40 40 41 41 42 42 42 41 42 42 42 42 41 41 42 43 44 45 46 46 47 47 47 47 47 47
53 53 54 54 55 56 56 54 54 55 57 57 56 56 55 54 54 54 54 55 55 54 55 56 56 57 54 51 50 50 54 55 50 45 38 32 32 32 33 33 30 31 32 32 33 33 33 32 31 30 30 33 36 39 42 43 44 45 46 47 46 45 46 46 46 46 46 45 45 45 45 44 43 44 44 44 44 45 45 46 47 47 48 48 49 48
54 55 56 57 57 56 55 55 56 56 56 56 56 56 56 56 56 56 57 57 57 57 58 58 57 57 55 52 52 52 55 56 53 50 45 41 40 38 37 38 37 38 40 37 35 36 36 35 34 35 38 42 45 46 46 46 46 47 48 49 50 50 51 51 51 51 50 50 50 49 48 47 47 47 46 46 46 46 45 46 46 47 47 48 49 49
51 53 55 55 55 54 54 54 53 54 54 54 55 56 57 58 58 59 60 59 60 61 60 58 56 55 55 56 55 53 54 55 55 53 50 47 47 44 42 43 42 44 45 43 39 39 39 39 41 46 50 51 51 49 48 48 49 49 49 51 52 53 54 53 53 54 54 54 54 53 51 50 49 49 49 49 48 48 47 47 47 48 48 49 49 49
49 50 51 51 51 51 51 50 50 51 52 53 54 55 57 59 60 62 63 62 64 63 59 58 55 54 58 59 57 55 56 57 56 55 52 49 50 48 45 44 45 46 48 47 45 44 44 47 51 55 57 57 55 53 53 53 53 53 53 53 53 53 53 54 55 56 56 57 57 56 55 53 52 51 50 50 50 50 50 50 50 50 50 50 50 50
51 51 50 49 48 48 47 48 49 50 51 52 54 55 57 59 61 64 65 64 64 63 60 58 57 58 61 60 57 56 57 58 57 56 55 51 49 49 47 47 48 49 50 49 49 51 53 56 59 61 62 62 60 58 57 58 59 59 58 57 56 55 54 53 55 57 58 59 59 59 58 57 56 54 53 53 53 53 52 52 53 53 53 53 53 52
52 51 49 49 48 48 48 48 49 50 51 51 52 54 56 58 61 64 65 65 65 63 61 60 60 62 63 60 57 56 55 56 56 56 56 53 50 49 50 52 53 55 56 55 55 58 61 62 63 64 66 67 66 64 63 63 63 62 61 59 57 56 54 53 54 57 59 60 60 60 61 60 60 59 58 57 57 57 56 56 55 56 56 56 56 55
54 53 51 49 48 49 50 50 50 50 51 52 51 51 53 54 56 58 59 61 63 63 63 63 64 64 63 60 57 54 53 55 56 57 58 56 53 52 54 57 59 60 61 62 62 63 65 67 67 67 66 68 70 69 68 67 65 63 60 58 56 55 52 50 53 57 58 60 60 61 61 62 62 62 62 62 63 62 61 60 60 59 60 59 59 60
49 52 53 53 52 53 53 52 51 51 52 53 53 53 53 52 52 53 54 54 55 59 62 64 65 63 60 59 57 54 54 55 56 58 58 58 57 56 57 60 63 63 64 66 66 66 66 68 69 70 70 70 70 69 68 66 63 60 56 54 53 51 49 47 50 54 57 59 60 61 62 62 63 63 63 63 64 65 66 66 65 64 63 63 63 63
49 52 55 58 57 55 54 52 51 51 53 55 56 56 55 53 54 56 57 55 55 59 60 60 61 60 57 58 58 56 56 57 57 59 60 60 60 60 60 63 66 67 67 68 70 71 71 71 72 73 74 73 71 68 64 60 56 54 51 50 49 48 47 48 51 53 56 58 59 61 62 62 62 62 62 62 63 65 67 69 69 69 68 68 67 67
60 61 60 61 61 59 58 57 57 57 57 57 57 56 55 56 58 59 60 60 60 62 62 59 59 58 55 56 58 56 56 59 60 61 62 62 62 63 65 67 70 71 71 72 72 74 76 76 76 76 77 76 72 67 62 58 55 53 51 49 47 47 49 51 54 57 59 59 59 60 62 62 62 62 63 63 63 64 66 68 70 71 72 72 72 71
67 68 66 65 66 66 65 65 65 65 63 62 60 59 60 61 62 62 63 63 62 63 65 63 62 62 60 58 59 59 60 64 66 65 66 65 65 67 70 73 75 75 76 75 75 76 77 78 77 76 76 74 71 67 63 61 58 56 55 53 50 50 54 56 57 59 60 60 59 59 60 62 63 64 65 66 65 64 65 67 69 70 72 73 73 72
66 69 69 68 68 69 68 68 70 68 67 66 66 66 66 66 67 67 66 65 61 59 59 58 57 60 63 63 64 66 67 66 65 66 69 70 71 74 76 78 79 79 78 77 76 77 77 76 76 75 73 71 68 65 63 62 61 59 56 56 55 55 60 63 62 60 61 62 61 61 61 63 65 66 67 67 67 65 64 65 66 67 70 72 71 71
65 67 69 68 67 70 70 69 69 68 68 69 70 70 69 68 66 64 61 58 55 52 51 52 52 54 58 61 64 66 67 65 65 68 73 74 75 76 77 77 76 75 74 73 73 74 73 71 71 70 69 68 66 64 63 64 65 65 61 60 61 63 67 70 67 64 62 61 61 62 63 65 67 68 69 67 65 64 63 63 64 67 69 70 71 72
67 67 67 66 66 68 68 66 66 67 67 68 68 67 66 62 55 53 55 53 51 53 54 57 60 56 52 54 59 63 66 68 69 71 73 74 75 76 76 76 74 71 70 69 69 71 71 70 68 68 68 66 65 65 66 67 69 71 71 68 68 70 74 74 72 68 65 62 61 62 64 66 68 69 69 67 64 63 64 65 65 66 68 70 71 73
66 65 65 66 66 66 64 63 63 64 64 64 64 63 61 58 54 55 59 58 58 61 62 64 70 66 55 52 58 64 67 70 72 72 71 71 71 72 72 73 74 73 71 71 72 73 73 72 71 71 71 70 69 68 70 72 75 77 79 78 78 78 78 76 73 71 67 64 62 62 64 66 68 69 69 68 66 65 65 66 67 67 69 71 74 76
62 62 64 65 66 66 65 65 66 66 65 65 64 62 61 61 61 61 64 65 67 70 69 71 77 75 65 60 64 68 69 71 74 75 73 71 70 71 72 73 74 76 77 78 79 78 75 74 73 74 74 74 74 74 76 80 83 84 85 84 84 82 80 76 73 71 69 66 65 64 65 66 67 69 70 70 70 68 68 68 69 70 71 73 76 78
53 55 57 60 62 63 63 64 66 66 65 64 64 63 63 64 65 66 67 68 71 73 73 74 78 77 72 69 71 73 75 77 78 80 80 80 80 80 80 80 80 81 82 83 82 80 79 78 78 78 79 81 82 84 86 87 87 87 86 84 82 80 79 76 74 73 72 71 71 70 68 68 69 70 71 72 72 71 71 71 72 73 74 76 79 81
55 57 58 60 64 66 65 63 63 64 65 66 66 66 66 66 68 69 70 71 74 76 75 74 74 73 71 71 72 74 76 78 79 80 82 84 86 86 86 86 86 86 86 86 85 85 85 85 85 86 87 88 90 90 90 89 87 86 85 83 81 80 79 78 77 76 76 76 77 75 72 71 72 72 72 72 73 73 73 74 75 76 77 78 78 79
63 62 59 57 57 57 57 55 56 60 63 64 64 65 65 66 67 68 70 73 76 76 75 72 72 73 72 72 73 73 74 75 77 78 79 81 82 84 84 85 85 84 83 82 81 80 80 81 82 83 84 85 86 87 86 85 83 82 82 83 83 83 82 82 82 82 81 81 81 80 78 76 76 77 77 76 76 76 77 78 79 79 80 80 80 79
69 70 67 65 63 62 62 62 64 68 70 71 71 71 71 71 72 72 75 77 77 78 79 78 77 78 78 75 74 74 73 73 74 74 76 77 78 79 79 80 81 82 81 80 79 79 78 78 79 79 80 81 82 83 83 83 82 81 80 81 82 83 84 85 86 86 86 86 85 85 85 84 83 83 83 83 83 82 82 83 84 84 84 84 84 84
71 73 72 72 74 74 74 74 74 75 76 76 76 76 76 75 76 77 78 78 77 79 81 80 79 80 79 76 75 75 75 75 74 75 76 78 79 81 82 83 84 84 85 85 85 85 85 85 85 85 84 84 84 84 83 82 81 80 80 80 81 81 82 83 84 85 85 85 86 86 86 86 85 85 84 84 84 84 84 84 85 86 86 86 86 87
72 73 73 75 77 77 76 76 76 77 78 78 78 77 77 77 78 78 78 77 77 79 79 77 77 78 78 77 77 77 78 77 77 77 78 79 81 82 83 84 84 84 84 85 85 86 87 87 88 88 88 87 88 88 87 86 85 84 83 83 84 83 82 82 82 83 82 82 81 80 79 78 78 79 80 79 79 79 80 81 82 83 84 84 85 86
72 73 74 75 77 78 77 76 76 77 78 80 80 79 78 79 79 77 77 77 75 75 74 74 75 75 74 73 73 73 73 73 74 75 75 76 77 77 78 79 80 82 84 85 86 87 88 88 88 88 88 88 89 89 90 90 90 90 89 88 87 86 84 83 83 82 82 80 79 77 75 72 71 72 73 75 75 76 78 80 82 83 83 83 83 84
71 73 74 74 78 79 76 75 77 77 78 81 82 80 78 78 77 76 75 73 71 69 69 69 71 71 70 70 69 70 70 70 71 71 71 71 72 73 75 77 80 85 88 89 89 89 88 88 88 88 88 88 88 89 91 91 92 92 92 91 90 89 87 85 84 82 81 80 79 77 75 73 71 70 71 73 75 77 80 81 83 84 85 84 84 84
71 73 74 75 78 79 76 75 77 77 79 82 79 75 73 71 69 69 68 66 66 67 68 69 71 72 73 74 75 76 76 76 76 76 75 75 76 78 80 83 87 92 93 92 91 90 89 88 88 88 88 88 88 89 90 91 92 93 93 93 93 93 91 89 88 86 85 84 83 81 78 76 75 73 72 72 74 77 80 81 82 83 84 84 84 84
71 73 75 76 79 81 78 77 78 79 82 81 76 72 71 70 68 68 68 68 69 71 73 75 78 81 83 84 85 86 87 87 86 86 85 86 87 88 90 91 93 94 93 93 93 93 93 93 94 95 95 94 93 93 93 94 94 94 94 95 95 95 95 94 93 93 91 90 88 86 84 83 83 82 81 79 78 80 81 82 81 82 83 83 83 83
73 74 77 78 81 82 81 79 81 83 84 81 76 75 75 75 75 75 75 75 76 79 81 83 85 87 89 90 92 93 93 94 94 93 92 93 94 95 95 95 95 94 94 94 94 94 95 96 98 99 99 100 100 101 101 101 100 100 99 98 98 98 98 98 98 98 97 96 95 95 95 96 96 96 95 92 90 90 90 88 85 84 84 84 83 83
76 76 78 79 80 82 82 82 83 85 85 82 80 80 79 79 79 79 78 79 81 83 86 87 88 89 89 91 93 94 95 96 96 96 95 96 98 98 97 96 96 95 95 94 94 94 95 95 96 97 98 99 100 102 103 104 105 105 105 105 105 104 103 103 104 104 104 103 103 104 106 106 106 105 103 102 101 100 99 97 93 89 87 85 85 86
77 77 78 79 80 81 82 82 84 85 85 84 82 81 82 81 81 81 82 82 83 84 86 88 89 89 90 91 92 93 95 96 96 95 95 96 97 98 97 95 94 93 92 92 92 91 92 93 94 95 96 96 97 98 100 101 102 103 103 104 105 106 106 106 107 108 109 109 109 110 110 110 110 109 109 108 107 104 102 101 99 95 91 87 86 87
76 77 78 79 80 81 81 82 84 85 86 85 83 82 82 82 81 82 84 84 83 84 87 87 87 88 89 90 91 92 94 95 95 94 93 93 93 93 92 91 90 89 89 88 88 89 89 90 91 91 92 93 93 93 95 96 97 98 98 99 100 101 101 102 103 105 106 106 107 107 107 107 107 106 106 106 104 102 100 100 99 98 96 92 89 87
74 74 74 75 77 78 79 81 83 84 84 83 82 81 81 80 80 81 83 83 82 81 83 84 84 85 87 88 89 90 91 92 92 91 89 87 87 87 87 86 85 85 85 85 85 85 86 86 87 87 88 88 88 88 89 90 91 92 93 93 94 96 96 97 98 100 101 101 101 101 101 101 101 100 99 98 98 98 97 96 96 97 97 96 94 91
71 71 71 72 73 73 75 77 79 80 80 79 77 76 76 77 78 78 79 80 79 78 79 81 82 82 83 84 85 86 86 87 87 85 83 82 81 82 82 83 83 82 83 83 83 83 84 84 85 85 85 85 85 85 86 87 88 89 89 89 90 91 92 94 95 96 97 97 97 97 98 98 99 99 99 98 97 97 96 96 95 95 95 96 97 97
68 68 68 69 70 70 71 73 75 76 75 73 71 70 70 71 73 74 74 74 74 75 76 77 78 78 78 79 80 80 80 81 81 80 79 78 78 79 80 81 81 81 82 82 82 83 83 84 85 85 85 84 85 86 87 88 89 89 88 89 89 89 91 93 93 93 93 93 94 94 95 95 96 97 98 99 100 100 99 98 97 96 95 95 95 97
63 64 65 65 66 66 67 69 71 73 72 69 66 64 65 66 67 68 69 69 69 70 71 72 73 74 75 76 76 77 77 77 78 78 78 78 78 78 79 80 81 82 82 83 83 84 85 86 86 86 86 86 86 87 88 90 91 90 90 90 90 91 92 93 93 93 93 92 92 93 94 94 95 96 96 97 98 100 101 101 100 99 98 97 96 95
59 60 61 61 61 63 64 66 68 68 66 63 61 60 61 62 63 63 65 66 66 67 69 70 71 72 73 73 74 74 75 76 77 77 78 78 78 79 79 80 82 83 84 85 85 86 87 88 88 88 88 87 88 88 90 91 92 92 92 92 92 93 94 94 94 94 93 93 93 93 93 94 95 96 96 97 97 97 98 99 100 100 98 97 97 96
56 56 57 57 58 60 62 63 64 63 60 59 59 58 58 59 61 62 64 65 66 66 67 69 69 69 70 71 72 74 75 76 77 78 78 79 79 79 80 81 82 83 84 85 86 86 87 89 89 89 89 89 89 89 91 92 93 93 93 93 93 94 95 95 95 95 94 94 94 94 94 94 95 96 97 98 98 98 98 97 98 99 98 95 94 94
54 53 54 57 58 59 61 61 59 58 57 56 57 57 58 59 59 60 62 64 65 64 65 66 67 67 69 71 73 74 76 76 77 78 79 79 79 79 80 81 82 83 84 85 85 86 87 88 89 89 89 88 88 88 89 90 91 92 92 92 92 94 95 95 95 95 95 95 95 94 94 95 94 95 96 98 99 99 99 98 98 98 98 97 94 91
51 50 54 57 57 57 58 56 53 53 54 53 54 56 57 58 58 59 61 62 63 64 65 66 68 69 70 72 73 74 75 76 77 77 78 79 79 79 80 81 81 82 82 83 83 84 85 86 87 87 87 86 85 85 86 87 88 90 90 90 91 92 93 93 94 94 94 94 94 94 95 95 95 95 95 96 98 98 99 99 99 99 99 98 97 93
46 48 53 55 54 55 55 51 49 52 53 53 55 56 56 57 58 59 61 62 62 64 65 67 68 69 70 72 73 73 74 75 76 76 77 77 78 77 78 78 78 78 78 79 80 81 82 83 84 85 86 86 85 85 86 87 87 88 89 90 90 91 91 91 91 91 91 91 92 92 93 93 94 94 94 95 96 97 98 98 99 100 100 99 98 97
45 48 52 53 52 54 54 50 49 52 54 55 56 57 57 58 59 59 61 62 62 64 65 66 68 69 70 71 72 72 73 73 74 75 75 75 75 74 74 74 75 75 76 77 78 80 82 83 85 86 86 86 85 85 86 86 86 86 88 89 90 90 90 89 89 89 89 89 89 89 90 91 92 93 93 94 94 95 96 97 97 99 100 99 98 98
46 48 50 51 52 54 54 51 51 54 56 55 56 57 58 59 59 60 61 62 63 64 65 66 67 68 69 70 71 71 72 72 72 72 71 70 70 71 72 73 74 75 76 78 79 80 81 82 83 84 84 84 84 84 84 84 84 84 85 86 87 88 88 87 86 86 86 85 85 85 86 87 89 90 91 92 93 93 94 95 96 97 98 98 98 99
46 47 47 50 54 54 52 51 52 55 57 55 56 58 58 59 59 61 61 62 63 64 65 65 65 66 67 67 68 68 68 67 67 67 67 67 68 70 72 73 74 75 76 77 78 78 79 80 81 82 82 81 80 80 80 79 78 78 79 80 81 82 83 83 82 82 82 81 81 82 82 83 84 86 87 89 90 90 91 92 92 94 96 97 97 98
45 46 46 50 53 54 53 52 53 56 57 56 56 58 58 58 59 60 61 62 63 64 64 64 64 63 63 62 62 62 62 62 63 65 66 67 68 70 71 72 73 74 74 74 75 76 76 76 77 77 76 74 73 73 72 72 71 71 72 73 74 75 76 77 77 77 76 76 77 77 79 80 81 82 83 84 85 87 88 88 88 89 91 93 95 96
Wind_Direction
279 280 280 284 289 289 284 281 282 284 285 285 285 285 286 287 287 291 292 290 290 287 285 286 286 287 289 291 293 294 292 291 294 292 288 288 284 282 283 284 280 274 269 266 264 265 268 273 277 279 280 281 281 280 280 281 281 280 278 277 277 275 274 274 274 273 271 269 268 267 269 270 270 271 274 276 275 274 272 270 270 270 270 271 272 272
279 279 281 286 286 281 279 281 283 285 285 285 285 285 286 287 288 290 288 287 287 285 285 288 286 285 287 290 292 293 292 294 296 292 287 285 280 281 284 279 273 271 271 267 263 264 269 275 279 280 281 281 280 280 280 280 279 278 278 276 274 273 273 273 272 271 271 270 269 268 268 269 270 272 274 274 272 271 270 270 270 270 271 272 273 273
278 278 281 282 279 278 280 282 283 283 283 284 285 285 285 286 288 287 285 284 283 282 285 287 286 285 286 287 288 290 293 297 296 290 287 281 275 279 283 279 274 272 272 270 267 267 270 273 276 277 277 277 278 279 280 281 280 280 280 278 276 274 273 272 270 270 270 270 270 271 271 270 270 269 269 269 269 269 270 269 269 269 269 269 270 271
277 278 279 277 276 278 280 280 280 281 281 282 283 283 284 285 286 284 283 283 282 283 285 286 288 289 287 285 284 285 291 296 293 288 287 283 276 277 281 281 278 276 275 275 275 274 273 273 274 275 276 277 279 281 283 285 285 285 284 283 283 281 279 277 275 273 271 271 272 273 272 271 270 269 268 267 268 269 269 268 268 267 266 266 268 270
275 276 276 276 276 277 277 278 279 279 280 280 281 281 281 282 281 281 282 284 283 283 285 288 290 290 289 287 285 285 289 291 285 281 283 282 276 275 277 275 272 272 275 278 279 279 278 277 277 278 280 282 284 286 287 287 287 287 287 287 287 287 286 284 281 279 277 276 276 275 273 272 271 270 269 268 268 267 266 266 266 266 266 267 269 270
272 273 274 274 274 275 275 277 278 279 280 280 279 278 279 279 278 279 281 282 283 284 285 287 287 287 288 288 287 289 292 289 281 276 278 279 274 273 273 267 260 261 265 268 273 278 279 280 282 285 287 289 291 290 289 288 288 288 288 289 290 289 288 286 283 282 280 280 279 278 276 274 272 271 271 270 268 266 265 265 265 266 267 269 270 271
270 271 271 271 272 272 273 274 277 279 279 278 278 277 277 277 277 278 279 279 281 283 283 284 283 282 283 284 287 291 292 287 279 276 276 274 270 270 272 266 254 253 258 261 263 268 272 275 278 282 285 288 291 291 290 289 288 288 288 288 288 288 287 286 283 281 280 279 278 277 276 275 274 273 272 270 268 267 267 267 267 268 269 270 271 272
272 271 270 269 269 270 271 274 276 277 276 276 277 277 276 276 276 276 277 277 278 280 281 281 280 279 280 282 285 289 289 287 283 281 278 271 269 270 271 268 260 258 262 265 266 265 266 269 272 274 277 282 287 289 290 289 288 288 287 287 286 286 285 284 282 281 280 278 277 276 275 275 275 274 271 270 269 269 268 268 269 269 270 271 272 272
273 272 271 270 269 270 272 274 274 274 274 275 276 275 275 275 275 274 274 274 274 276 277 276 277 278 278 281 284 285 285 287 288 287 284 277 273 273 272 270 268 269 270 270 270 268 266 266 266 267 271 277 282 285 286 286 286 287 287 286 285 285 285 284 282 281 281 280 279 277 276 275 274 272 270 270 270 269 269 269 269 269 269 270 270 270
273 272 272 272 272 273 273 273 272 273 273 273 274 274 274 273 273 272 272 272 272 272 274 274 276 279 278 279 280 278 280 284 286 287 288 285 279 276 277 277 275 275 274 273 272 270 268 265 265 270 275 279 282 282 281 281 282 283 284 283 283 283 284 283 282 281 281 281 281 279 277 275 274 273 273 272 271 271 271 271 270 270 269 268 268 267
273 273 272 272 273 273 273 272 272 272 272 271 271 271 271 271 271 270 270 270 269 270 272 273 276 279 279 277 276 276 278 281 282 284 288 289 285 281 282 282 280 279 277 275 273 271 269 269 273 279 282 284 284 283 283 282 282 283 282 281 280 281 281 281 280 280 280 280 281 280 278 276 275 274 275 276 275 275 275 275 274 273 272 270 269 268
272 272 272 272 273 273 273 273 272 271 270 269 269 269 269 269 269 269 269 268 268 270 272 274 275 276 274 274 275 276 277 277 279 282 285 286 286 285 285 282 280 279 276 274 274 273 272 276 280 283 284 285 284 284 283 284 285 285 283 281 279 278 278 279 278 278 278 279 280 281 279 278 276 276 276 277 277 277 277 277 277 276 275 273 271 269
271 272 273 273 273 274 274 274 274 273 272 271 271 270 269 269 269 269 269 269 269 271 273 275 275 272 269 270 271 272 274 276 278 281 282 282 283 284 284 284 281 278 274 272 273 274 277 280 283 284 284 284 284 283 282 283 284 285 284 282 281 279 278 278 276 275 275 276 277 277 278 278 277 277 278 278 278 278 278 277 276 276 276 275 273 270
273 273 274 275 275 275 277 277 276 275 275 275 274 274 272 271 271 270 270 271 272 273 273 273 271 268 267 268 267 268 271 275 277 277 278 279 280 280 282 284 285 283 279 277 278 279 281 282 283 284 285 285 285 285 284 284 284 284 283 281 279 277 277 277 273 271 272 273 273 274 276 277 277 277 277 278 278 278 278 278 277 276 275 275 274 271
278 275 275 277 277 277 279 279 278 276 276 275 275 275 273 272 273 273 273 274 273 273 271 269 267 266 267 268 268 269 270 272 274 274 274 276 277 278 280 282 283 284 285 285 286 287 287 287 288 288 288 287 288 288 287 286 285 284 282 278 275 273 274 273 268 267 269 270 271 272 274 275 276 276 276 277 277 277 277 276 276 275 274 273 273 272
282 280 280 281 281 280 281 281 281 279 277 276 276 274 274 275 274 272 272 271 270 270 268 267 266 265 266 268 269 270 269 269 271 273 274 276 277 277 279 280 280 281 283 284 285 287 288 290 290 290 290 289 289 289 289 288 287 286 282 279 276 274 274 272 269 267 267 267 268 269 270 272 272 272 273 274 275 276 275 275 274 274 274 274 274 273
275 277 280 281 281 280 280 279 279 278 278 278 277 276 276 276 273 271 270 269 267 267 266 267 268 266 265 265 265 266 268 270 272 273 274 276 277 278 277 278 278 278 280 281 283 284 285 286 287 288 289 289 289 289 288 287 286 284 282 281 277 273 273 274 273 272 270 269 268 267 267 269 269 269 269 270 272 273 273 273 272 272 273 274 274 273
272 273 273 275 276 275 275 275 275 274 275 275 275 276 275 274 272 272 272 271 270 269 268 266 266 267 265 263 262 264 268 272 272 271 272 273 275 276 276 276 277 278 279 280 281 282 283 284 285 285 286 287 288 287 286 285 285 282 280 279 274 266 268 275 277 276 275 272 268 266 266 266 265 265 268 271 271 271 271 271 272 272 272 273 273 274
274 273 272 272 273 273 273 274 274 274 273 273 274 274 273 273 273 274 275 276 275 274 274 272 269 267 265 262 264 267 268 270 270 270 271 272 272 274 274 274 276 277 278 279 280 281 282 283 284 284 284 284 284 284 284 283 283 281 279 277 272 262 263 273 278 277 276 272 269 267 267 267 266 266 269 272 272 271 271 271 272 273 273 273 273 273
275 275 273 272 272 273 273 273 274 274 274 274 275 274 273 273 274 275 276 278 278 277 277 276 272 267 265 264 266 268 266 265 267 268 269 270 271 272 274 274 276 277 277 278 279 279 280 281 282 282 282 282 282 282 282 281 280 279 276 274 271 265 265 273 277 274 272 271 269 268 267 267 266 267 269 271 271 271 271 270 271 271 272 272 272 272
275 275 276 275 274 273 274 274 274 274 273 272 273 273 274 274 276 276 274 274 274 274 273 273 269 263 263 264 264 265 264 263 263 264 265 267 268 270 272 273 274 276 276 277 278 278 279 280 279 279 278 278 278 277 277 277 277 276 274 271 270 269 272 276 277 274 271 269 267 266 266 265 264 264 266 267 268 267 266 266 266 267 268 269 269 270
278 278 278 277 275 274 274 275 274 273 272 272 272 272 273 273 273 270 268 265 263 264 265 269 270 264 259 258 257 257 258 260 262 264 265 266 267 267 268 268 269 270 273 276 277 278 278 278 276 274 272 271 272 272 273 274 274 274 274 272 270 271 274 277 276 274 272 268 265 262 261 262 261 262 263 264 264 262 260 260 260 261 263 264 265 267
279 279 278 277 276 275 274 273 272 271 272 271 271 271 271 270 267 263 263 262 261 262 263 268 272 268 257 250 252 255 257 259 262 266 267 267 267 267 267 266 267 268 269 272 274 275 275 274 271 268 267 266 266 268 270 272 273 273 274 273 272 272 273 273 272 272 271 269 265 261 258 257 258 261 263 264 263 262 260 259 259 260 260 261 262 264
279 278 278 278 277 276 274 272 272 272 272 271 270 270 269 268 267 265 265 267 267 267 266 269 272 271 263 255 255 258 261 262 264 266 267 267 266 266 266 266 267 267 268 271 272 273 271 269 267 264 263 263 263 264 267 269 271 271 272 272 272 272 272 270 268 268 268 267 265 263 260 258 257 259 262 264 264 263 262 262 262 261 261 260 261 263
277 277 277 278 278 276 274 272 272 272 271 271 270 269 268 268 269 269 269 271 271 270 270 270 271 272 270 266 263 263 264 265 265 266 267 268 268 268 268 268 268 268 269 270 270 270 269 267 265 264 262 262 263 265 266 268 269 270 270 270 270 269 269 269 267 266 266 266 265 263 260 258 257 257 258 260 261 261 261 262 262 262 261 260 260 262
272 272 273 274 274 274 274 273 272 271 271 270 270 269 269 270 271 271 271 271 271 272 272 271 272 273 273 272 271 269 269 269 268 268 269 270 270 270 270 270 270 271 271 272 272 271 271 269 268 267 266 267 267 268 269 270 270 270 269 268 267 267 267 267 267 266 265 265 265 262 258 257 257 257 257 257 257 258 260 261 261 261 261 261 261 263
271 270 270 270 270 271 272 271 270 272 273 273 273 272 272 272 272 272 272 271 272 273 273 272 274 275 274 274 274 274 275 275 275 274 273 272 272 272 273 273 273 274 274 274 274 273 273 272 272 272 272 272 272 273 273 273 273 271 270 268 267 266 265 265 266 266 265 265 264 262 260 258 258 259 260 260 260 260 262 264 265 265 265 266 266 266
270 269 268 268 268 268 269 269 271 272 273 273 273 273 273 273 273 272 272 273 274 274 274 274 275 276 276 276 276 276 276 276 275 275 274 273 273 274 274 274 275 275 275 275 274 274 273 273 273 273 274 274 275 275 275 275 274 273 272 270 269 267 266 265 265 266 265 265 264 264 264 264 263 264 265 266 266 266 266 266 268 269 269 269 269 269
270 270 269 269 268 268 268 270 271 272 272 272 272 272 272 272 272 272 273 274 274 273 274 275 276 275 275 275 273 272 271 271 271 271 272 272 273 274 275 275 275 275 276 275 275 275 275 275 274 274 274 274 274 274 274 274 274 273 273 272 271 270 268 266 266 266 267 266 265 265 265 266 266 266 267 267 268 268 268 268 268 269 269 270 269 269
271 271 271 270 270 270 270 270 271 272 272 272 272 272 273 274 274 274 274 275 275 275 275 275 274 273 273 273 272 272 271 270 269 269 269 270 271 272 273 274 274 275 275 276 276 276 276 277 277 276 276 275 275 274 274 273 273 273 273 272 271 271 269 268 267 266 266 266 266 265 264 264 264 264 264 264 264 265 266 267 267 267 268 268 268 268
271 271 271 271 271 271 270 271 271 271 272 272 271 272 273 274 275 276 276 277 276 275 275 274 274 274 274 274 273 272 272 271 271 270 270 269 269 270 270 271 272 273 275 276 276 276 276 276 276 276 275 275 275 275 274 274 274 274 274 273 272 270 269 269 268 267 266 265 265 264 263 262 261 261 261 260 260 260 262 263 264 265 266 266 267 267
271 272 272 272 272 271 271 271 271 271 271 271 271 272 274 275 277 277 276 276 274 273 273 273 273 274 273 272 271 271 270 270 269 268 268 268 268 269 270 271 273 276 277 278 277 277 276 275 274 274 273 273 273 273 273 273 273 273 273 273 272 271 270 268 267 266 265 264 263 262 261 260 260 259 258 258 258 258 260 261 262 264 265 265 265 265
271 272 272 272 272 272 272 272 272 272 271 271 273 276 276 276 276 274 272 270 269 269 270 271 271 272 272 272 273 273 272 271 270 270 270 270 271 271 271 272 274 276 276 276 275 275 274 274 274 273 273 272 272 271 271 271 271 271 271 271 270 270 270 269 267 266 265 265 263 261 260 260 260 260 259 258 259 259 260 260 260 261 262 263 263 264
271 270 271 271 272 272 272 272 272 271 271 272 275 276 274 273 271 268 266 266 267 269 271 272 273 274 275 276 277 277 276 276 276 276 277 277 276 276 275 274 274 274 274 273 273 272 271 270 271 271 271 271 270 270 271 271 271 270 270 270 269 268 268 268 267 266 266 265 264 262 261 261 262 262 261 260 261 262 262 261 261 261 261 261 261 261
270 269 269 270 271 272 272 272 272 271 272 274 274 272 271 271 270 268 267 267 268 270 271 273 274 275 276 277 277 278 278 278 279 280 281 281 280 279 278 277 277 276 275 275 274 273 272 271 270 270 270 270 270 270 270 270 269 269 268 268 268 267 267 267 267 267 266 265 264 263 263 264 264 264 263 262 262 263 264 263 263 262 262 261 260 260
271 270 270 270 271 272 272 271 272 272 273 273 273 272 272 272 271 271 271 270 270 270 272 273 275 276 276 276 277 278 278 279 279 279 280 281 281 281 280 280 280 279 279 278 277 276 275 275 274 273 272 271 271 271 271 270 269 268 267 267 266 266 266 266 266 266 266 266 266 265 266 266 266 266 265 264 265 265 265 264 263 263 262 262 261 260
269 269 269 270 270 271 272 272 272 273 273 273 273 274 273 273 273 274 273 272 272 272 273 274 275 276 277 277 277 277 278 277 277 277 278 280 281 281 281 281 281 281 281 280 280 279 278 277 277 276 275 274 273 273 273 272 271 270 269 268 268 267 267 267 266 266 266 265 266 266 266 266 266 266 266 267 267 266 264 262 261 261 261 260 260 260
269 268 269 269 269 270 271 272 272 273 274 274 274 274 274 275 275 275 274 273 273 274 275 276 276 277 277 277 277 277 277 277 277 277 277 278 280 281 281 282 282 282 282 281 281 280 279 278 278 277 277 276 275 275 275 274 273 273 272 271 271 270 270 269 269 268 267 266 266 266 267 267 267 267 267 267 267 265 263 262 260 259 258 258 257 258
272 271 271 271 270 270 271 272 272 273 274 274 275 275 276 276 276 276 276 276 275 275 277 277 277 277 277 277 278 278 279 279 279 279 279 279 280 282 282 283 282 282 282 282 282 281 280 280 279 279 279 278 278 277 277 276 276 275 274 273 272 272 271 271 270 269 269 268 268 267 267 267 267 267 267 266 266 265 264 263 261 259 257 256 255 255
274 274 273 273 273 273 273 273 273 273 274 275 276 277 277 277 277 277 278 278 278 277 277 277 277 277 278 278 279 279 280 281 282 283 283 283 283 284 284 284 284 284 283 283 282 282 282 282 281 281 280 280 280 279 278 278 277 276 276 275 274 273 273 272 271 270 269 268 268 267 267 266 266 265 265 264 264 264 265 264 264 262 259 257 254 253
276 276 275 275 276 276 276 276 276 275 275 276 277 278 278 277 277 277 278 279 278 278 277 278 279 279 279 279 280 280 282 283 284 285 286 286 285 285 285 285 285 285 285 284 284 284 283 283 283 282 282 282 281 280 280 279 278 277 277 276 275 274 274 273 272 271 270 270 269 268 267 267 266 265 264 262 261 261 262 263 264 264 262 259 257 255
277 276 276 277 278 278 277 277 277 277 278 279 279 279 279 279 278 279 278 278 277 278 278 278 278 279 279 280 281 282 283 284 285 285 286 286 286 286 286 286 286 286 286 285 285 285 284 284 283 283 283 282 282 281 281 280 279 278 278 277 276 275 274 273 272 271 271 270 269 269 269 268 267 267 265 264 262 261 260 260 262 264 263 262 260 258
277 276 277 278 279 278 277 276 277 279 281 281 281 281 281 281 280 279 278 276 276 277 277 277 278 279 280 281 282 282 283 284 285 286 286 286 286 286 286 286 286 286 286 286 286 285 285 284 284 284 284 283 283 283 282 281 281 280 279 278 278 276 275 274 273 272 271 270 269 268 268 268 268 268 267 266 265 263 261 259 259 261 262 263 263 261
276 277 278 279 278 277 276 276 278 281 283 282 282 282 280 279 279 278 277 277 277 277 277 278 279 280 281 282 282 283 284 285 285 286 286 286 286 287 287 287 287 287 287 287 287 286 286 286 285 285 285 285 285 284 284 283 283 282 281 280 279 278 277 276 275 274 272 271 270 269 268 267 266 266 267 266 266 265 263 261 259 259 259 261 262 262
278 279 280 278 277 276 276 278 281 283 283 283 282 280 279 277 277 277 277 278 278 279 279 280 281 282 282 283 284 285 285 286 286 286 287 287 287 287 288 287 287 287 287 287 287 287 287 287 287 287 287 287 286 286 286 285 284 283 282 281 280 279 278 277 276 275 274 273 272 270 269 267 266 265 265 265 265 265 264 263 262 260 259 259 259 259
281 282 280 278 277 277 278 281 284 283 282 281 280 279 279 279 278 279 279 280 281 282 282 283 283 284 284 284 285 285 286 286 287 287 287 288 288 288 288 288 288 288 288 289 289 289 289 289 289 289 288 288 287 286 286 285 285 284 283 282 281 280 279 278 277 276 275 274 273 271 270 269 267 266 265 264 264 264 264 263 263 262 260 259 259 258
281 280 278 278 280 280 281 282 283 281 280 279 278 278 279 279 280 281 282 282 283 283 284 284 284 285 285 285 285 285 286 287 287 287 287 288 288 288 288 288 289 289 290 291 291 291 290 290 290 289 289 289 288 288 287 286 286 286 285 284 282 281 280 278 277 276 275 274 273 272 271 269 268 266 265 264 263 262 262 262 262 262 261 260 259 257
282 279 279 281 282 282 282 283 281 279 279 278 279 279 280 280 281 281 282 282 283 283 284 284 284 285 285 285 286 286 287 287 287 288 288 289 289 290 290 291 292 292 293 293 292 292 292 291 291 291 291 291 290 289 288 288 287 287 286 285 284 282 281 280 279 278 276 275 274 272 271 270 269 267 266 264 263 262 261 260 260 260 260 260 260 258
282 281 283 284 282 281 282 283 282 280 279 279 280 281 281 281 281 281 282 283 283 283 284 284 285 285 286 286 287 287 288 288 289 290 291 292 293 293 294 294 294 294 294 293 293 293 293 292 292 292 291 291 291 290 289 289 288 288 287 285 285 284 283 282 280 279 278 277 276 274 273 271 270 269 267 266 264 263 262 260 259 259 258 258 258 258
285 284 285 285 284 283 283 284 284 283 282 281 281 282 282 283 283 283 283 284 284 284 284 285 285 286 287 288 288 289 289 290 291 293 294 295 296 295 295 295 295 294 294 294 294 294 294 293 293 292 292 292 292 291 291 290 289 288 286 285 284 284 283 282 281 279 278 277 276 275 274 272 271 269 268 267 265 264 262 261 260 259 258 256 256 256
287 287 287 286 286 286 285 285 286 286 286 285 284 283 284 285 285 285 285 285 285 286 286 286 286 287 288 289 290 291 292 294 295 296 296 297 297 297 297 297 297 297 297 297 296 295 295 295 295 295 295 294 293 292 291 290 289 287 286 285 285 284 284 283 282 281 279 278 277 275 274 273 271 270 269 268 267 265 264 262 260 259 259 258 255 254
Height
5806 5803 5801 5806 5810 5809 5806 5802 5800 5800 5800 5799 5797 5796 5795 5794 5794 5799 5799 5798 5796 5790 5788 5790 5789 5787 5787 5789 5793 5798 5798 5797 5799 5799 5799 5798 5796 5794 5794 5794 5793 5791 5790 5788 5785 5782 5780 5780 5781 5782 5783 5783 5784 5785 5786 5787 5787 5787 5788 5788 5789 5788 5788 5787 5787 5787 5787 5788 5788 5788 5789 5789 5789 5788 5789 5790 5790 5790 5791 5791 5791 5792 5792 5792 5792 5791
5801 5797 5798 5805 5805 5801 5799 5798 5797 5796 5795 5794 5793 5791 5790 5789 5790 5793 5794 5793 5791 5785 5782 5784 5783 5783 5785 5785 5787 5791 5793 5794 5794 5794 5794 5795 5792 5790 5790 5789 5788 5787 5785 5783 5780 5778 5778 5778 5778 5779 5780 5780 5780 5781 5782 5782 5783 5783 5784 5784 5785 5784 5784 5785 5784 5784 5784 5784 5784 5784 5784 5785 5784 5785 5785 5786 5786 5786 5786 5787 5787 5787 5787 5787 5787 5786
5795 5791 5796 5800 5797 5794 5794 5794 5792 5790 5790 5789 5788 5786 5785 5786 5786 5786 5786 5786 5786 5781 5779 5780 5776 5777 5781 5781 5781 5785 5788 5789 5789 5788 5789 5790 5789 5787 5786 5784 5784 5783 5780 5778 5776 5776 5776 5776 5775 5775 5776 5776 5776 5777 5777 5778 5778 5779 5779 5780 5780 5780 5780 5781 5780 5780 5780 5780 5779 5779 5780 5780 5780 5781 5781 5781 5781 5782 5782 5782 5782 5782 5782 5781 5781 5781
5788 5787 5792 5793 5790 5790 5789 5787 5786 5784 5784 5785 5784 5782 5780 5782 5781 5777 5778 5779 5780 5778 5776 5775 5772 5770 5775 5775 5774 5779 5785 5785 5784 5783 5785 5786 5785 5784 5782 5780 5779 5777 5775 5773 5773 5773 5773 5772 5772 5772 5772 5773 5773 5773 5773 5774 5774 5775 5775 5775 5776 5776 5776 5776 5776 5776 5776 5775 5775 5775 5775 5775 5775 5776 5776 5776 5777 5777 5777 5777 5776 5776 5775 5775 5776 5776
5783 5783 5785 5786 5785 5785 5783 5781 5780 5778 5779 5780 5779 5777 5776 5776 5775 5772 5771 5771 5772 5773 5772 5771 5767 5764 5767 5768 5766 5772 5780 5781 5779 5779 5780 5781 5781 5780 5779 5777 5774 5773 5771 5769 5769 5769 5769 5769 5769 5769 5769 5769 5769 5769 5769 5770 5770 5771 5771 5771 5772 5772 5772 5772 5772 5772 5771 5771 5771 5771 5771 5771 5771 5771 5771 5772 5772 5772 5771 5771 5770 5769 5769 5770 5771 5771
5778 5778 5780 5781 5780 5778 5777 5775 5774 5773 5774 5774 5773 5772 5771 5770 5769 5768 5767 5765 5764 5766 5768 5767 5764 5760 5760 5761 5760 5763 5771 5774 5772 5774 5776 5777 5775 5775 5774 5772 5770 5769 5767 5766 5765 5765 5765 5765 5765 5765 5764 5764 5765 5765 5766 5766 5766 5766 5767 5767 5767 5768 5768 5768 5767 5767 5766 5766 5766 5766 5766 5766 5766 5766 5767 5767 5767 5765 5765 5765 5764 5764 5764 5764 5765 5765
5773 5775 5775 5775 5774 5772 5770 5770 5770 5768 5767 5766 5766 5767 5766 5765 5764 5763 5763 5761 5760 5759 5760 5761 5760 5756 5755 5756 5756 5757 5762 5765 5765 5767 5772 5772 5770 5769 5768 5767 5766 5765 5763 5761 5761 5761 5761 5761 5761 5761 5760 5760 5761 5761 5761 5762 5762 5762 5762 5762 5762 5762 5762 5762 5762 5762 5761 5761 5761 5760 5760 5760 5760 5761 5762 5761 5760 5760 5759 5759 5758 5759 5759 5759 5759 5759
5767 5769 5769 5768 5768 5765 5764 5765 5765 5762 5760 5760 5761 5760 5760 5760 5760 5759 5758 5757 5755 5755 5754 5753 5753 5751 5751 5752 5753 5752 5752 5753 5756 5760 5764 5766 5765 5763 5761 5760 5761 5760 5758 5756 5756 5757 5757 5757 5758 5757 5757 5757 5756 5756 5756 5757 5757 5756 5756 5756 5756 5756 5756 5756 5756 5755 5755 5755 5755 5755 5754 5754 5755 5755 5755 5755 5754 5755 5754 5754 5754 5754 5753 5753 5753 5753
5761 5761 5761 5760 5760 5759 5760 5760 5758 5755 5754 5754 5755 5754 5753 5754 5754 5753 5752 5751 5750 5749 5747 5746 5747 5747 5747 5749 5749 5748 5744 5743 5747 5750 5755 5758 5758 5757 5755 5753 5754 5752 5750 5750 5751 5752 5753 5754 5754 5754 5754 5754 5753 5753 5752 5751 5751 5751 5750 5750 5750 5750 5750 5749 5749 5749 5749 5748 5749 5749 5749 5749 5749 5748 5748 5748 5748 5749 5749 5749 5749 5748 5748 5747 5747 5746
5753 5753 5753 5752 5752 5753 5753 5752 5750 5749 5748 5749 5749 5748 5747 5747 5747 5746 5745 5744 5744 5742 5740 5740 5742 5743 5745 5746 5745 5743 5740 5739 5741 5742 5745 5749 5749 5750 5749 5746 5745 5742 5740 5742 5745 5746 5747 5748 5749 5749 5749 5749 5749 5749 5748 5747 5746 5745 5745 5744 5744 5744 5743 5743 5742 5742 5742 5742 5742 5742 5742 5742 5742 5742 5742 5742 5742 5743 5743 5743 5743 5743 5742 5741 5740 5740
5746 5746 5745 5744 5745 5745 5744 5744 5744 5744 5742 5742 5742 5741 5740 5739 5739 5738 5737 5738 5735 5734 5735 5737 5740 5741 5740 5739 5737 5738 5738 5735 5736 5737 5738 5739 5738 5740 5741 5738 5736 5733 5731 5734 5738 5740 5740 5741 5742 5742 5741 5741 5742 5741 5741 5741 5740 5740 5739 5738 5738 5737 5737 5736 5736 5736 5735 5735 5735 5735 5735 5735 5735 5735 5735 5736 5736 5737 5737 5737 5737 5736 5736 5735 5735 5734
5739 5738 5738 5738 5738 5737 5737 5737 5738 5737 5736 5735 5735 5735 5734 5732 5731 5729 5729 5730 5727 5727 5732 5734 5736 5737 5733 5730 5731 5734 5733 5730 5730 5731 5732 5733 5731 5730 5731 5730 5728 5725 5724 5727 5730 5731 5732 5733 5733 5733 5732 5733 5734 5734 5734 5733 5733 5732 5731 5731 5730 5730 5730 5730 5729 5729 5728 5728 5728 5728 5728 5728 5728 5728 5728 5728 5729 5729 5729 5729 5729 5729 5728 5728 5728 5727
5732 5732 5732 5733 5733 5732 5731 5731 5731 5730 5729 5729 5729 5728 5727 5725 5724 5721 5720 5722 5721 5724 5728 5728 5729 5727 5724 5726 5729 5728 5726 5726 5727 5726 5725 5726 5725 5723 5721 5719 5718 5716 5717 5721 5723 5723 5724 5724 5724 5723 5722 5723 5725 5727 5727 5726 5725 5724 5723 5722 5722 5722 5722 5722 5722 5721 5721 5721 5721 5721 5721 5721 5721 5721 5721 5721 5721 5721 5721 5721 5721 5721 5720 5719 5719 5719
5725 5727 5727 5727 5728 5727 5726 5726 5725 5724 5723 5722 5723 5722 5720 5719 5716 5713 5713 5715 5716 5719 5721 5721 5720 5716 5716 5721 5724 5724 5724 5723 5721 5719 5718 5719 5719 5717 5713 5709 5706 5705 5707 5712 5714 5713 5713 5713 5714 5714 5714 5714 5715 5718 5718 5718 5717 5717 5716 5716 5716 5715 5716 5715 5715 5715 5714 5714 5714 5714 5714 5714 5714 5714 5713 5712 5712 5712 5712 5712 5712 5712 5711 5711 5710 5710
5717 5720 5722 5721 5722 5722 5720 5720 5718 5717 5716 5716 5718 5716 5713 5714 5711 5707 5708 5709 5709 5710 5711 5711 5709 5709 5711 5714 5717 5719 5720 5717 5714 5711 5710 5710 5711 5710 5705 5699 5697 5698 5699 5700 5701 5700 5700 5700 5701 5703 5704 5704 5704 5706 5707 5708 5708 5708 5708 5709 5709 5709 5709 5709 5709 5708 5708 5708 5707 5707 5706 5706 5706 5705 5705 5704 5704 5704 5704 5703 5703 5703 5702 5702 5702 5701
5708 5711 5714 5712 5713 5715 5713 5712 5711 5709 5709 5710 5711 5708 5707 5710 5708 5703 5701 5702 5702 5699 5699 5701 5701 5705 5709 5709 5711 5713 5711 5709 5706 5703 5702 5701 5700 5699 5695 5692 5692 5694 5694 5692 5691 5691 5690 5690 5690 5690 5691 5693 5693 5693 5694 5695 5696 5697 5698 5699 5700 5701 5701 5701 5701 5701 5701 5700 5700 5699 5698 5698 5697 5697 5697 5696 5696 5696 5696 5695 5695 5694 5694 5693 5693 5693
5702 5705 5708 5704 5703 5706 5705 5705 5705 5703 5701 5701 5701 5702 5703 5703 5701 5696 5692 5694 5693 5688 5690 5694 5694 5699 5706 5704 5704 5706 5703 5701 5698 5696 5694 5691 5688 5687 5688 5687 5686 5686 5687 5686 5685 5684 5683 5683 5682 5682 5681 5681 5682 5682 5682 5683 5684 5685 5687 5688 5689 5690 5691 5692 5693 5693 5692 5691 5690 5690 5689 5688 5688 5688 5688 5688 5688 5687 5688 5688 5687 5686 5686 5685 5685 5684
5694 5696 5702 5699 5695 5697 5699 5697 5697 5697 5695 5693 5693 5695 5696 5694 5692 5689 5684 5683 5683 5678 5680 5688 5690 5693 5698 5697 5697 5699 5698 5692 5689 5688 5684 5682 5680 5678 5679 5680 5678 5677 5678 5678 5678 5676 5675 5675 5675 5675 5674 5673 5672 5672 5673 5674 5675 5675 5676 5678 5679 5680 5681 5682 5683 5683 5682 5681 5680 5680 5679 5679 5679 5679 5678 5678 5679 5678 5678 5679 5678 5678 5677 5677 5676 5676
5686 5683 5691 5697 5690 5687 5692 5691 5687 5688 5688 5686 5686 5687 5687 5684 5682 5681 5676 5672 5673 5670 5669 5677 5683 5685 5690 5693 5691 5691 5690 5681 5676 5677 5674 5673 5673 5671 5671 5672 5670 5669 5669 5669 5670 5668 5667 5667 5666 5665 5665 5665 5664 5663 5664 5665 5666 5667 5666 5668 5669 5670 5670 5671 5672 5673 5672 5671 5671 5670 5669 5669 5668 5669 5668 5668 5668 5669 5669 5669 5669 5669 5669 5668 5668 5667
5679 5671 5675 5688 5686 5679 5683 5685 5680 5679 5680 5678 5676 5676 5676 5676 5674 5672 5669 5665 5664 5662 5660 5663 5668 5673 5684 5689 5682 5678 5677 5671 5666 5666 5665 5666 5666 5664 5664 5664 5662 5661 5660 5661 5661 5660 5659 5658 5657 5657 5656 5656 5656 5655 5655 5656 5657 5658 5658 5658 5659 5660 5659 5659 5661 5662 5662 5661 5661 5660 5659 5659 5658 5659 5658 5658 5659 5660 5660 5660 5660 5660 5659 5658 5658 5658
5672 5665 5663 5674 5678 5671 5673 5677 5673 5671 5671 5669 5666 5665 5667 5667 5665 5663 5660 5659 5659 5655 5652 5651 5650 5659 5677 5682 5674 5666 5660 5657 5657 5657 5657 5659 5659 5657 5656 5655 5654 5653 5651 5652 5651 5650 5651 5650 5649 5649 5649 5648 5648 5647 5647 5647 5647 5648 5650 5650 5650 5649 5648 5648 5649 5650 5651 5651 5650 5650 5649 5648 5648 5648 5648 5649 5650 5651 5651 5651 5650 5649 5649 5649 5649 5648
5663 5658 5654 5659 5664 5664 5666 5668 5664 5661 5661 5659 5657 5657 5659 5660 5659 5655 5650 5652 5653 5646 5643 5643 5636 5644 5666 5674 5663 5652 5645 5645 5648 5649 5648 5649 5649 5649 5648 5647 5646 5645 5643 5643 5642 5641 5642 5642 5642 5641 5640 5640 5639 5638 5638 5639 5638 5638 5639 5640 5640 5639 5638 5637 5637 5638 5638 5639 5639 5639 5638 5637 5636 5636 5636 5638 5640 5641 5640 5640 5640 5639 5639 5639 5638 5638
5654 5649 5645 5646 5649 5654 5657 5658 5654 5652 5653 5651 5649 5650 5652 5652 5651 5648 5641 5642 5642 5636 5635 5635 5625 5628 5652 5663 5650 5638 5638 5641 5639 5638 5639 5639 5638 5638 5638 5637 5637 5636 5635 5634 5634 5633 5633 5633 5633 5631 5631 5630 5630 5629 5629 5628 5629 5628 5628 5629 5629 5628 5628 5628 5628 5627 5627 5628 5628 5628 5627 5626 5625 5624 5625 5626 5628 5629 5629 5629 5629 5629 5629 5629 5628 5627
5646 5641 5638 5637 5637 5641 5646 5647 5645 5643 5643 5641 5640 5643 5644 5641 5641 5639 5634 5632 5629 5626 5629 5627 5616 5617 5635 5646 5639 5631 5633 5634 5630 5628 5628 5627 5628 5628 5628 5628 5627 5626 5626 5624 5624 5624 5623 5622 5622 5621 5620 5619 5619 5619 5619 5618 5618 5618 5618 5618 5617 5617 5617 5617 5617 5617 5617 5617 5617 5617 5616 5615 5615 5614 5614 5615 5616 5617 5617 5618 5618 5619 5619 5618 5617 5617
5638 5635 5633 5630 5627 5629 5634 5637 5636 5634 5633 5631 5632 5634 5633 5631 5632 5629 5627 5624 5617 5616 5622 5617 5608 5611 5622 5628 5627 5625 5624 5623 5622 5621 5618 5617 5617 5617 5616 5617 5617 5616 5615 5614 5613 5612 5612 5611 5610 5609 5608 5608 5608 5608 5608 5608 5608 5607 5607 5607 5607 5606 5605 5605 5606 5607 5607 5607 5607 5606 5605 5604 5603 5603 5603 5603 5605 5606 5606 5606 5607 5607 5608 5608 5607 5606
5631 5628 5628 5624 5620 5619 5623 5628 5628 5625 5623 5622 5623 5625 5624 5623 5623 5620 5618 5615 5607 5607 5611 5605 5600 5606 5612 5613 5613 5614 5613 5612 5613 5612 5610 5607 5605 5603 5604 5603 5604 5604 5603 5602 5602 5601 5600 5599 5598 5597 5597 5596 5596 5595 5595 5595 5595 5595 5595 5594 5595 5595 5595 5594 5595 5595 5596 5596 5596 5596 5595 5593 5592 5591 5591 5592 5593 5594 5595 5595 5595 5596 5596 5596 5597 5597
5622 5620 5620 5618 5615 5613 5614 5617 5618 5616 5613 5612 5612 5614 5615 5615 5614 5611 5608 5603 5600 5598 5596 5595 5596 5596 5599 5602 5602 5602 5603 5601 5600 5599 5598 5595 5592 5591 5591 5590 5590 5590 5589 5589 5589 5588 5588 5587 5585 5584 5583 5582 5582 5581 5581 5581 5581 5581 5581 5581 5582 5582 5582 5582 5582 5582 5582 5583 5583 5583 5583 5582 5581 5580 5580 5580 5581 5582 5583 5583 5584 5584 5584 5584 5585 5586
5612 5608 5611 5612 5607 5606 5607 5607 5609 5608 5604 5602 5601 5602 5605 5605 5604 5602 5597 5595 5595 5589 5582 5587 5592 5585 5586 5593 5592 5590 5591 5589 5587 5586 5584 5583 5581 5580 5579 5578 5577 5576 5575 5575 5575 5575 5575 5574 5573 5573 5571 5570 5569 5568 5567 5567 5567 5567 5567 5567 5567 5568 5568 5569 5568 5568 5568 5569 5569 5569 5569 5569 5568 5568 5568 5568 5568 5569 5570 5571 5571 5571 5572 5572 5572 5573
5601 5597 5601 5601 5596 5596 5599 5599 5600 5598 5594 5591 5589 5590 5593 5595 5595 5592 5588 5587 5587 5578 5572 5578 5581 5575 5575 5580 5580 5578 5579 5578 5576 5575 5573 5572 5571 5568 5567 5567 5565 5564 5563 5562 5561 5560 5560 5560 5560 5560 5559 5559 5558 5557 5556 5555 5555 5555 5554 5554 5553 5554 5555 5556 5556 5555 5555 5555 5555 5556 5556 5556 5555 5555 5555 5555 5556 5556 5557 5558 5559 5559 5559 5559 5559 5560
5590 5589 5591 5588 5583 5585 5589 5590 5590 5587 5582 5579 5579 5578 5580 5583 5584 5583 5579 5579 5576 5568 5565 5568 5566 5563 5565 5566 5565 5565 5565 5565 5565 5564 5563 5562 5560 5559 5557 5555 5553 5552 5551 5550 5549 5548 5547 5546 5545 5545 5545 5545 5544 5544 5543 5543 5542 5542 5541 5541 5540 5540 5540 5541 5542 5542 5542 5542 5541 5541 5542 5542 5542 5542 5542 5543 5544 5544 5545 5545 5546 5547 5547 5546 5546 5546
5581 5579 5580 5578 5572 5572 5578 5581 5579 5575 5569 5566 5567 5570 5574 5574 5573 5572 5569 5568 5565 5559 5557 5557 5553 5551 5554 5554 5553 5553 5551 5551 5551 5550 5551 5550 5549 5548 5547 5545 5544 5542 5540 5539 5539 5538 5537 5536 5534 5533 5532 5531 5530 5529 5529 5528 5528 5527 5527 5527 5526 5525 5526 5526 5527 5527 5528 5529 5528 5528 5528 5528 5529 5529 5529 5530 5531 5532 5532 5533 5533 5533 5534 5534 5534 5533
5573 5569 5569 5569 5559 5557 5569 5571 5564 5563 5559 5553 5556 5564 5568 5566 5562 5560 5559 5557 5554 5550 5548 5548 5544 5542 5543 5542 5541 5540 5539 5539 5538 5538 5539 5539 5537 5536 5535 5535 5534 5532 5531 5530 5528 5527 5526 5525 5524 5523 5521 5520 5519 5517 5516 5515 5515 5514 5513 5512 5511 5511 5511 5512 5512 5512 5513 5514 5515 5515 5515 5515 5516 5516 5516 5517 5518 5519 5519 5520 5521 5521 5520 5521 5521 5521
5567 5560 5558 5558 5547 5545 5559 5559 5551 5550 5544 5540 5552 5560 5558 5555 5552 5549 5549 5547 5545 5543 5541 5539 5536 5534 5532 5530 5529 5528 5526 5525 5525 5525 5527 5527 5526 5524 5523 5523 5523 5522 5522 5520 5518 5517 5515 5513 5513 5511 5510 5509 5508 5506 5505 5503 5502 5502 5500 5499 5497 5497 5497 5497 5497 5497 5498 5500 5500 5501 5502 5502 5503 5503 5503 5504 5505 5506 5506 5506 5507 5507 5507 5508 5508 5508
5558 5553 5549 5547 5537 5534 5546 5547 5539 5534 5528 5534 5551 5553 5544 5543 5543 5540 5539 5539 5537 5535 5532 5529 5526 5522 5520 5519 5517 5514 5512 5510 5510 5512 5513 5512 5511 5510 5509 5510 5511 5511 5510 5509 5508 5506 5504 5502 5501 5499 5498 5497 5495 5495 5493 5491 5490 5489 5489 5487 5485 5484 5483 5483 5482 5482 5482 5484 5485 5485 5486 5487 5489 5490 5490 5490 5491 5492 5493 5492 5493 5493 5493 5494 5494 5494
5546 5544 5539 5537 5530 5525 5532 5535 5525 5518 5521 5531 5539 5538 5534 5534 5531 5529 5530 5531 5530 5526 5521 5517 5514 5511 5510 5508 5504 5500 5497 5496 5497 5499 5500 5497 5493 5493 5494 5495 5496 5496 5496 5496 5494 5493 5491 5489 5487 5486 5485 5484 5482 5481 5480 5478 5476 5476 5476 5475 5473 5472 5470 5469 5468 5467 5467 5469 5469 5469 5470 5471 5472 5474 5475 5475 5476 5477 5478 5478 5478 5478 5478 5479 5480 5481
5533 5532 5528 5526 5522 5517 5519 5520 5513 5508 5515 5522 5523 5524 5524 5521 5518 5519 5520 5522 5520 5516 5511 5506 5502 5500 5499 5496 5492 5488 5485 5484 5486 5489 5489 5483 5478 5477 5478 5481 5482 5480 5480 5480 5478 5478 5476 5474 5471 5470 5470 5469 5468 5467 5464 5462 5460 5459 5461 5460 5458 5458 5457 5455 5454 5452 5452 5453 5454 5453 5453 5454 5455 5456 5457 5458 5459 5460 5461 5462 5463 5464 5463 5464 5466 5466
5522 5521 5518 5515 5513 5510 5507 5506 5504 5501 5504 5510 5513 5513 5511 5507 5508 5509 5507 5508 5509 5505 5499 5495 5492 5490 5487 5483 5480 5477 5474 5473 5475 5481 5482 5475 5468 5465 5465 5467 5467 5466 5465 5464 5463 5462 5461 5459 5456 5454 5453 5453 5453 5451 5448 5445 5443 5442 5443 5443 5441 5440 5440 5440 5438 5437 5437 5438 5438 5437 5437 5437 5437 5438 5439 5440 5441 5442 5444 5445 5446 5448 5448 5449 5451 5452
5511 5510 5509 5504 5502 5502 5498 5494 5494 5492 5492 5498 5502 5501 5498 5496 5499 5497 5491 5492 5499 5496 5486 5481 5481 5479 5473 5470 5468 5465 5462 5460 5463 5470 5474 5468 5461 5456 5455 5455 5455 5453 5451 5450 5448 5446 5445 5443 5441 5439 5438 5437 5438 5437 5433 5429 5427 5426 5426 5426 5425 5423 5423 5423 5420 5419 5420 5422 5422 5421 5420 5419 5419 5420 5421 5422 5422 5423 5425 5426 5428 5430 5432 5433 5436 5437
5499 5498 5498 5493 5490 5493 5491 5485 5484 5483 5483 5487 5489 5489 5487 5487 5487 5484 5476 5477 5487 5486 5474 5467 5468 5466 5462 5459 5457 5452 5449 5447 5449 5456 5460 5458 5453 5447 5444 5444 5443 5440 5438 5436 5434 5431 5429 5428 5426 5425 5424 5423 5422 5422 5418 5414 5412 5410 5410 5411 5409 5407 5407 5405 5403 5402 5403 5405 5405 5404 5403 5402 5402 5402 5403 5404 5405 5405 5406 5408 5410 5412 5414 5417 5419 5421
5489 5487 5486 5482 5481 5483 5481 5476 5475 5474 5475 5479 5479 5477 5478 5477 5475 5471 5466 5466 5472 5470 5461 5456 5455 5454 5451 5449 5445 5441 5439 5437 5437 5440 5445 5445 5442 5437 5433 5430 5429 5427 5425 5423 5421 5418 5415 5413 5411 5410 5410 5409 5408 5406 5403 5399 5396 5395 5395 5394 5393 5393 5391 5388 5385 5386 5386 5388 5388 5388 5387 5386 5385 5385 5386 5387 5388 5389 5390 5391 5392 5394 5397 5399 5402 5404
5479 5477 5474 5472 5472 5473 5470 5466 5464 5462 5466 5471 5470 5467 5468 5467 5463 5461 5459 5458 5455 5452 5450 5447 5444 5442 5440 5437 5434 5432 5431 5429 5427 5428 5430 5430 5428 5426 5422 5418 5415 5414 5412 5410 5408 5405 5402 5399 5397 5395 5396 5395 5393 5390 5388 5383 5380 5380 5380 5378 5377 5378 5375 5370 5369 5370 5370 5371 5371 5371 5370 5369 5368 5368 5369 5370 5371 5372 5374 5376 5376 5377 5380 5382 5384 5387
5470 5467 5464 5464 5464 5463 5461 5457 5451 5451 5458 5462 5460 5458 5457 5455 5452 5452 5450 5446 5442 5441 5441 5438 5434 5431 5429 5427 5425 5423 5422 5421 5419 5418 5418 5417 5415 5413 5411 5408 5404 5401 5399 5396 5394 5392 5388 5385 5383 5382 5382 5381 5379 5375 5372 5367 5364 5364 5364 5362 5362 5360 5356 5353 5354 5354 5354 5355 5355 5354 5354 5353 5352 5352 5352 5352 5353 5353 5357 5360 5361 5361 5363 5365 5367 5370
5461 5457 5457 5459 5457 5453 5450 5447 5443 5444 5451 5452 5449 5449 5448 5444 5441 5440 5437 5434 5433 5433 5430 5427 5425 5424 5420 5418 5417 5414 5412 5412 5410 5408 5407 5405 5404 5401 5400 5397 5393 5389 5386 5383 5381 5378 5373 5370 5369 5368 5368 5367 5365 5361 5356 5351 5348 5348 5347 5346 5345 5341 5336 5336 5337 5336 5337 5338 5338 5338 5338 5337 5336 5336 5335 5335 5335 5335 5338 5343 5345 5346 5347 5349 5351 5353
5452 5450 5450 5451 5449 5443 5439 5439 5440 5440 5442 5442 5440 5440 5439 5434 5431 5428 5424 5423 5424 5424 5421 5418 5417 5417 5414 5409 5407 5405 5404 5402 5400 5398 5396 5394 5393 5391 5388 5385 5381 5377 5374 5371 5368 5364 5359 5355 5354 5354 5353 5353 5351 5346 5342 5336 5332 5330 5330 5329 5326 5321 5318 5319 5318 5318 5319 5320 5320 5321 5322 5321 5321 5320 5319 5319 5318 5318 5320 5324 5326 5328 5331 5333 5335 5337
5445 5445 5443 5441 5439 5434 5431 5434 5438 5435 5433 5433 5431 5429 5427 5425 5423 5419 5415 5413 5414 5415 5413 5410 5408 5408 5405 5400 5397 5396 5394 5392 5390 5388 5385 5383 5382 5381 5377 5374 5370 5365 5361 5359 5355 5351 5346 5342 5340 5339 5338 5339 5337 5332 5327 5322 5316 5313 5313 5312 5307 5302 5301 5301 5300 5300 5301 5301 5302 5303 5303 5303 5304 5305 5304 5303 5302 5301 5303 5306 5308 5310 5313 5315 5318 5321
5440 5439 5433 5429 5430 5427 5425 5430 5433 5428 5424 5424 5422 5419 5417 5414 5413 5412 5408 5406 5406 5406 5404 5401 5398 5398 5395 5392 5389 5387 5384 5382 5379 5377 5375 5373 5371 5369 5366 5362 5358 5353 5349 5347 5343 5339 5334 5330 5327 5324 5322 5323 5323 5318 5312 5308 5303 5298 5296 5293 5289 5285 5283 5283 5282 5282 5282 5282 5283 5283 5283 5283 5285 5287 5287 5286 5286 5285 5287 5289 5290 5292 5295 5297 5300 5304
5436 5432 5423 5420 5422 5420 5418 5425 5426 5419 5415 5415 5413 5411 5410 5407 5405 5404 5401 5399 5399 5397 5395 5392 5389 5387 5385 5382 5380 5377 5376 5373 5369 5366 5365 5363 5360 5358 5354 5350 5346 5343 5339 5336 5331 5326 5322 5318 5315 5311 5308 5307 5307 5304 5298 5293 5290 5285 5280 5275 5272 5268 5266 5265 5265 5264 5264 5264 5264 5264 5264 5264 5265 5267 5268 5269 5269 5269 5270 5272 5273 5274 5276 5280 5283 5286
5428 5424 5418 5416 5416 5412 5411 5417 5418 5410 5406 5407 5405 5403 5402 5400 5399 5397 5394 5392 5391 5388 5386 5384 5381 5378 5376 5373 5370 5368 5366 5364 5359 5356 5355 5353 5350 5347 5343 5339 5336 5332 5329 5325 5319 5314 5310 5306 5302 5298 5294 5292 5291 5288 5282 5279 5276 5272 5265 5259 5254 5250 5248 5248 5248 5246 5246 5247 5246 5246 5246 5245 5245 5246 5248 5250 5251 5251 5252 5255 5256 5256 5258 5263 5266 5268
5419 5416 5413 5410 5407 5405 5406 5408 5406 5399 5398 5400 5399 5395 5393 5392 5391 5389 5386 5384 5383 5380 5378 5376 5372 5369 5366 5363 5361 5358 5357 5355 5351 5346 5344 5343 5341 5336 5332 5328 5325 5321 5317 5313 5308 5303 5299 5294 5289 5285 5281 5279 5276 5272 5268 5264 5262 5258 5251 5244 5239 5234 5231 5232 5232 5229 5229 5230 5229 5229 5229 5228 5227 5228 5229 5230 5231 5233 5234 5237 5239 5239 5242 5247 5250 5252
5410 5409 5408 5401 5397 5398 5400 5400 5395 5389 5388 5392 5391 5387 5384 5384 5382 5380 5378 5376 5374 5371 5369 5367 5364 5361 5357 5354 5352 5349 5347 5346 5342 5338 5336 5334 5331 5326 5322 5318 5314 5310 5306 5301 5296 5292 5288 5283 5277 5272 5269 5267 5263 5258 5254 5250 5247 5243 5236 5230 5225 5220 5216 5215 5214 5214 5214 5214 5213 5212 5212 5210 5210 5210 5210 5210 5212 5214 5216 5220 5222 5222 5224 5230 5235 5236
5402 5402 5401 5394 5389 5389 5391 5391 5387 5381 5379 5381 5381 5378 5377 5376 5374 5371 5370 5367 5364 5362 5360 5357 5356 5354 5351 5347 5344 5341 5339 5337 5334 5331 5328 5326 5322 5316 5312 5308 5303 5299 5295 5290 5285 5280 5276 5272 5267 5261 5257 5254 5250 5245 5240 5236 5232 5228 5222 5217 5212 5207 5203 5200 5199 5198 5200 5200 5198 5197 5196 5194 5193 5194 5193 5193 5195 5195 5197 5201 5205 5207 5208 5211 5216 5220